| time (UTC) | temp C | wind direction | speed KPH | gust KPH | rain 1hr cm | rain 24hr cm | rain mn cm | humidity % | barometer mb |
| 20260506021600 | 15 | 320 | 6.4 | 8.0 | 0.00 | 0.00 | 0.00 | 76 | 1013.9 |
| 20260506021100 | 15 | 313 | 4.8 | 9.7 | 0.00 | 0.00 | 0.00 | 76 | 1013.8 |
| 20260506020816 | 15 | 316 | 6.4 | 11.3 | 0.00 | 0.00 | 0.00 | 75 | 1013.8 |
| 20260506020057 | 15 | 326 | 6.4 | 11.3 | 0.00 | 0.00 | 0.00 | 75 | 1013.8 |
| 20260506020042 | 15 | 319 | 8.0 | 14.5 | 0.00 | 0.00 | 0.00 | 75 | 1013.8 |
| 20260506015053 | 15 | 286 | 8.0 | 14.5 | 0.00 | 0.00 | 0.00 | 75 | 1013.8 |
| 20260506014554 | 15 | 344 | 8.0 | 11.3 | 0.00 | 0.00 | 0.00 | 75 | 1013.9 |
| 20260506014053 | 15 | 305 | 4.8 | 14.5 | 0.00 | 0.00 | 0.00 | 75 | 1013.9 |
| 20260506013819 | 15 | 330 | 4.8 | 16.1 | 0.00 | 0.00 | 0.00 | 74 | 1014.0 |
| 20260506013052 | 15 | 303 | 6.4 | 16.1 | 0.00 | 0.00 | 0.00 | 74 | 1013.9 |
| 20260506012816 | 15 | 327 | 6.4 | 11.3 | 0.00 | 0.00 | 0.00 | 73 | 1013.9 |
| 20260506012049 | 15 | 317 | 6.4 | 11.3 | 0.00 | 0.00 | 0.00 | 72 | 1013.8 |
| 20260506011538 | 15 | 305 | 4.8 | 9.7 | 0.00 | 0.00 | 0.00 | 72 | 1013.9 |
| 20260506011036 | 15 | 303 | 3.2 | 8.0 | 0.00 | 0.00 | 0.00 | 72 | 1013.8 |
| 20260506010534 | 15 | 303 | 4.8 | 9.7 | 0.00 | 0.00 | 0.00 | 71 | 1013.8 |
| 20260506010032 | 15 | 282 | 3.2 | 9.7 | 0.00 | 0.00 | 0.00 | 71 | 1013.8 |
| 20260506005534 | 15 | 306 | 4.8 | 6.4 | 0.00 | 0.00 | 0.00 | 71 | 1013.7 |
| 20260506005033 | 15 | 299 | 4.8 | 6.4 | 0.00 | 0.00 | 0.00 | 71 | 1013.8 |
| 20260506004531 | 15 | 321 | 3.2 | 6.4 | 0.00 | 0.00 | 0.00 | 71 | 1013.8 |
| 20260506004031 | 15 | 293 | 4.8 | 6.4 | 0.00 | 0.00 | 0.00 | 71 | 1013.8 |
| 20260506003532 | 15 | 262 | 1.6 | 6.4 | 0.00 | 0.00 | 0.00 | 71 | 1013.9 |
| 20260506003031 | 15 | 313 | 1.6 | 6.4 | 0.00 | 0.00 | 0.00 | 71 | 1013.7 |
| 20260506002532 | 15 | 292 | 1.6 | 9.7 | 0.00 | 0.00 | 0.00 | 71 | 1013.7 |
| 20260506002032 | 15 | 290 | 4.8 | 9.7 | 0.00 | 0.00 | 0.00 | 70 | 1013.6 |
| 20260506001758 | 15 | 307 | 4.8 | 8.0 | 0.00 | 0.00 | 0.00 | 71 | 1013.6 |
| 20260506001513 | 15 | 299 | 6.4 | 8.0 | 0.00 | 0.00 | 0.00 | 70 | 1013.6 |
| 20260506000530 | 15 | 296 | 4.8 | 11.3 | 0.00 | 0.00 | 0.00 | 70 | 1013.5 |
| 20260506000249 | 16 | 278 | 8.0 | 11.3 | 0.00 | 0.00 | 0.00 | 70 | 1013.5 |
| 20260506000027 | 16 | 289 | 8.0 | 11.3 | 0.00 | 0.00 | 0.00 | 70 | 1013.5 |
| 20260505235031 | 16 | 296 | 4.8 | 9.7 | 0.00 | 0.00 | 0.00 | 71 | 1013.4 |
| 20260505234530 | 15 | 298 | 6.4 | 11.3 | 0.00 | 0.00 | 0.00 | 71 | 1013.5 |
| 20260505234028 | 15 | 300 | 6.4 | 16.1 | 0.00 | 0.00 | 0.00 | 71 | 1013.5 |
| 20260505233747 | 15 | 299 | 3.2 | 16.1 | 0.00 | 0.00 | 0.00 | 71 | 1013.5 |
| 20260505233027 | 15 | 292 | 9.7 | 14.5 | 0.00 | 0.00 | 0.00 | 70 | 1013.5 |
| 20260505232526 | 15 | 309 | 9.7 | 17.7 | 0.00 | 0.00 | 0.00 | 70 | 1013.6 |
| 20260505232026 | 15 | 316 | 6.4 | 17.7 | 0.00 | 0.00 | 0.00 | 70 | 1013.6 |
| 20260505231525 | 16 | 286 | 4.8 | 11.3 | 0.00 | 0.00 | 0.00 | 70 | 1013.7 |
| 20260505231023 | 16 | 298 | 3.2 | 8.0 | 0.00 | 0.00 | 0.00 | 70 | 1013.7 |
| 20260505230523 | 16 | 321 | 3.2 | 9.7 | 0.00 | 0.00 | 0.00 | 70 | 1013.7 |
| 20260505230021 | 16 | 265 | 6.4 | 9.7 | 0.00 | 0.00 | 0.00 | 70 | 1013.6 |
| 20260505225521 | 16 | 296 | 4.8 | 8.0 | 0.00 | 0.00 | 0.00 | 70 | 1013.6 |
| 20260505225020 | 15 | 279 | 4.8 | 9.7 | 0.00 | 0.00 | 0.00 | 71 | 1013.6 |
| 20260505225012 | 15 | 286 | 8.0 | 9.7 | 0.00 | 0.00 | 0.00 | 71 | 1013.7 |
| 20260505224016 | 15 | 285 | 3.2 | 11.3 | 0.00 | 0.00 | 0.00 | 71 | 1013.7 |
| 20260505223517 | 15 | 298 | 6.4 | 14.5 | 0.00 | 0.00 | 0.00 | 71 | 1013.7 |
| 20260505223017 | 15 | 271 | 9.7 | 17.7 | 0.00 | 0.00 | 0.00 | 71 | 1013.7 |
| 20260505222517 | 15 | 275 | 9.7 | 17.7 | 0.00 | 0.00 | 0.00 | 71 | 1013.7 |
| 20260505222014 | 16 | 290 | 9.7 | 17.7 | 0.00 | 0.00 | 0.00 | 71 | 1013.7 |
| 20260505221512 | 15 | 279 | 9.7 | 16.1 | 0.00 | 0.00 | 0.00 | 71 | 1013.7 |
| 20260505221010 | 15 | 305 | 8.0 | 14.5 | 0.00 | 0.00 | 0.00 | 72 | 1013.7 |
| 20260505220511 | 15 | 283 | 4.8 | 16.1 | 0.00 | 0.00 | 0.00 | 72 | 1013.7 |
| 20260505220009 | 15 | 250 | 9.7 | 16.1 | 0.00 | 0.00 | 0.00 | 72 | 1013.8 |
| 20260505215509 | 16 | 283 | 9.7 | 16.1 | 0.00 | 0.00 | 0.00 | 72 | 1013.9 |
| 20260505215010 | 16 | 299 | 3.2 | 14.5 | 0.00 | 0.00 | 0.00 | 72 | 1013.9 |
| 20260505214507 | 16 | 292 | 6.4 | 11.3 | 0.00 | 0.00 | 0.00 | 72 | 1013.9 |
| 20260505214007 | 16 | 302 | 6.4 | 14.5 | 0.00 | 0.00 | 0.00 | 72 | 1013.9 |
| 20260505213730 | 16 | 271 | 9.7 | 14.5 | 0.00 | 0.00 | 0.00 | 72 | 1013.9 |
| 20260505213003 | 16 | 306 | 4.8 | 14.5 | 0.00 | 0.00 | 0.00 | 72 | 1013.9 |
| 20260505212506 | 16 | 269 | 8.0 | 14.5 | 0.00 | 0.00 | 0.00 | 73 | 1014.0 |
| 20260505212004 | 15 | 289 | 4.8 | 16.1 | 0.00 | 0.00 | 0.00 | 73 | 1014.1 |
| 20260505211505 | 15 | 293 | 4.8 | 16.1 | 0.00 | 0.00 | 0.00 | 72 | 1014.1 |
| 20260505211006 | 15 | 258 | 6.4 | 14.5 | 0.00 | 0.00 | 0.00 | 73 | 1014.1 |
| 20260505210730 | 15 | 329 | 9.7 | 14.5 | 0.00 | 0.00 | 0.00 | 75 | 1014.0 |
| 20260505210226 | 15 | 261 | 6.4 | 11.3 | 0.00 | 0.00 | 0.00 | 75 | 1014.0 |
| 20260505205503 | 15 | 317 | 4.8 | 11.3 | 0.00 | 0.00 | 0.00 | 76 | 1014.0 |
| 20260505205003 | 15 | 295 | 6.4 | 11.3 | 0.00 | 0.00 | 0.00 | 76 | 1014.0 |
| 20260505204503 | 15 | 264 | 4.8 | 8.0 | 0.00 | 0.00 | 0.00 | 77 | 1014.0 |
| 20260505204225 | 15 | 290 | 1.6 | 6.4 | 0.00 | 0.00 | 0.00 | 77 | 1014.0 |
| 20260505203502 | 15 | 300 | 4.8 | 6.4 | 0.00 | 0.00 | 0.00 | 78 | 1014.0 |
| 20260505203003 | 15 | 255 | 1.6 | 6.4 | 0.00 | 0.00 | 0.00 | 79 | 1014.1 |
| 20260505202503 | 14 | 207 | 3.2 | 6.4 | 0.00 | 0.00 | 0.00 | 80 | 1014.2 |
| 20260505202004 | 14 | 281 | 1.6 | 8.0 | 0.00 | 0.00 | 0.00 | 80 | 1014.2 |
| 20260505201504 | 13 | 276 | 3.2 | 8.0 | 0.00 | 0.00 | 0.00 | 80 | 1014.2 |
| 20260505201003 | 13 | 330 | 3.2 | 8.0 | 0.00 | 0.00 | 0.00 | 80 | 1014.2 |
| 20260505200724 | 13 | 314 | 3.2 | 9.7 | 0.00 | 0.00 | 0.00 | 80 | 1014.3 |
| 20260505200004 | 13 | 281 | 4.8 | 11.3 | 0.00 | 0.00 | 0.00 | 80 | 1014.4 |
| 20260505195504 | 13 | 310 | 4.8 | 11.3 | 0.00 | 0.00 | 0.00 | 80 | 1014.4 |
| 20260505195227 | 13 | 300 | 6.4 | 11.3 | 0.00 | 0.00 | 0.00 | 79 | 1014.4 |
| 20260505194503 | 14 | 296 | 6.4 | 9.7 | 0.00 | 0.00 | 0.00 | 80 | 1014.4 |
| 20260505194004 | 14 | 283 | 8.0 | 9.7 | 0.00 | 0.00 | 0.00 | 80 | 1014.4 |
| 20260505193503 | 14 | 271 | 6.4 | 9.7 | 0.00 | 0.00 | 0.00 | 81 | 1014.4 |
| 20260505193003 | 14 | 271 | 6.4 | 11.3 | 0.00 | 0.00 | 0.00 | 82 | 1014.4 |
| 20260505192504 | 13 | 292 | 6.4 | 11.3 | 0.00 | 0.00 | 0.00 | 82 | 1014.5 |
| 20260505192003 | 13 | 278 | 3.2 | 8.0 | 0.00 | 0.00 | 0.00 | 83 | 1014.4 |
| 20260505191505 | 13 | 295 | 4.8 | 8.0 | 0.00 | 0.00 | 0.00 | 83 | 1014.4 |
| 20260505191002 | 13 | 334 | 4.8 | 9.7 | 0.00 | 0.00 | 0.00 | 83 | 1014.3 |
| 20260505190725 | 13 | 295 | 6.4 | 11.3 | 0.00 | 0.00 | 0.00 | 83 | 1014.4 |
| 20260505190004 | 13 | 299 | 8.0 | 11.3 | 0.00 | 0.00 | 0.00 | 83 | 1014.3 |
| 20260505185503 | 13 | 336 | 4.8 | 9.7 | 0.00 | 0.00 | 0.00 | 84 | 1014.3 |
| 20260505185003 | 13 | 299 | 4.8 | 8.0 | 0.00 | 0.00 | 0.00 | 85 | 1014.2 |
| 20260505184504 | 13 | 221 | 1.6 | 6.4 | 0.00 | 0.00 | 0.00 | 86 | 1014.3 |
| 20260505184225 | 13 | 305 | 0.0 | 8.0 | 0.00 | 0.00 | 0.00 | 86 | 1014.3 |
| 20260505183503 | 12 | 296 | 3.2 | 8.0 | 0.00 | 0.00 | 0.00 | 88 | 1014.4 |
| 20260505183003 | 12 | 303 | 1.6 | 4.8 | 0.00 | 0.00 | 0.00 | 87 | 1014.4 |
| 20260505182503 | 12 | 302 | 1.6 | 4.8 | 0.00 | 0.00 | 0.00 | 87 | 1014.2 |
| 20260505182002 | 12 | 300 | 1.6 | 6.4 | 0.00 | 0.00 | 0.00 | 87 | 1014.3 |
| 20260505181503 | 12 | 289 | 3.2 | 6.4 | 0.00 | 0.00 | 0.00 | 86 | 1014.3 |
| 20260505181003 | 12 | 295 | 4.8 | 9.7 | 0.00 | 0.00 | 0.00 | 86 | 1014.4 |
| 20260505180504 | 12 | 302 | 4.8 | 9.7 | 0.00 | 0.00 | 0.00 | 86 | 1014.3 |
| 20260505180002 | 12 | 306 | 4.8 | 8.0 | 0.00 | 0.00 | 0.00 | 86 | 1014.3 |
| 20260505175502 | 12 | 326 | 4.8 | 9.7 | 0.00 | 0.00 | 0.00 | 86 | 1014.2 |
| 20260505174959 | 12 | 337 | 6.4 | 9.7 | 0.00 | 0.00 | 0.00 | 85 | 1014.1 |
| 20260505174716 | 12 | 350 | 3.2 | 8.0 | 0.00 | 0.00 | 0.00 | 85 | 1014.0 |
| 20260505173952 | 12 | 312 | 6.4 | 8.0 | 0.00 | 0.00 | 0.00 | 85 | 1014.0 |
| 20260505173454 | 12 | 324 | 1.6 | 6.4 | 0.00 | 0.00 | 0.00 | 84 | 1013.9 |
| 20260505172953 | 12 | 320 | 3.2 | 6.4 | 0.00 | 0.00 | 0.00 | 84 | 1013.9 |
| 20260505172450 | 12 | 314 | 1.6 | 6.4 | 0.00 | 0.00 | 0.00 | 84 | 1013.8 |
| 20260505171951 | 12 | 309 | 3.2 | 6.4 | 0.00 | 0.00 | 0.00 | 83 | 1013.7 |
| 20260505171450 | 12 | 305 | 3.2 | 9.7 | 0.00 | 0.00 | 0.00 | 83 | 1013.7 |
| 20260505170947 | 12 | 300 | 4.8 | 9.7 | 0.00 | 0.00 | 0.00 | 83 | 1013.7 |
| 20260505170446 | 12 | 296 | 3.2 | 6.4 | 0.00 | 0.00 | 0.00 | 83 | 1013.7 |
| 20260505165946 | 12 | 321 | 1.6 | 4.8 | 0.00 | 0.00 | 0.00 | 84 | 1013.7 |
| 20260505165707 | 12 | 329 | 1.6 | 4.8 | 0.00 | 0.00 | 0.00 | 84 | 1013.7 |
| 20260505164946 | 12 | 292 | 1.6 | 6.4 | 0.00 | 0.00 | 0.00 | 84 | 1013.7 |
| 20260505164445 | 12 | 290 | 3.2 | 8.0 | 0.00 | 0.00 | 0.00 | 84 | 1013.7 |
| 20260505163945 | 12 | 290 | 3.2 | 8.0 | 0.00 | 0.00 | 0.00 | 84 | 1013.7 |
| 20260505163446 | 12 | 286 | 6.4 | 8.0 | 0.00 | 0.00 | 0.00 | 84 | 1013.6 |
| 20260505162947 | 12 | 278 | 4.8 | 8.0 | 0.00 | 0.00 | 0.00 | 84 | 1013.6 |
| 20260505162445 | 12 | 293 | 3.2 | 8.0 | 0.00 | 0.00 | 0.00 | 85 | 1013.6 |
| 20260505161945 | 12 | 296 | 4.8 | 8.0 | 0.00 | 0.00 | 0.00 | 85 | 1013.5 |
| 20260505161445 | 12 | 257 | 3.2 | 4.8 | 0.00 | 0.00 | 0.00 | 85 | 1013.4 |
| 20260505160944 | 12 | 248 | 1.6 | 4.8 | 0.00 | 0.00 | 0.00 | 86 | 1013.5 |
| 20260505160446 | 11 | 250 | 0.0 | 3.2 | 0.00 | 0.00 | 0.00 | 86 | 1013.3 |
| 20260505152706 | 11 | 161 | 0.0 | 0.0 | 0.00 | 0.00 | 0.00 | 87 | 1013.3 |
| 20260505152211 | 11 | 161 | 0.0 | 3.2 | 0.00 | 0.00 | 0.00 | 87 | 1013.3 |
| 20260505151441 | 11 | 162 | 0.0 | 3.2 | 0.00 | 0.00 | 0.00 | 87 | 1013.2 |
| 20260505151436 | 11 | 162 | 0.0 | 3.2 | 0.00 | 0.00 | 0.00 | 87 | 1013.2 |
| 20260505150437 | 11 | 161 | 0.0 | 1.6 | 0.00 | 0.00 | 0.00 | 87 | 1013.1 |
| 20260505140432 | 11 | 326 | 3.2 | 4.8 | 0.00 | 0.00 | 0.00 | 87 | 1012.7 |
| 20260505124931 | 11 | 324 | 0.0 | 3.2 | 0.00 | 0.00 | 0.00 | 86 | 1012.5 |
| 20260505124432 | 11 | 324 | 0.0 | 3.2 | 0.00 | 0.00 | 0.00 | 86 | 1012.5 |
| 20260505123933 | 11 | 324 | 0.0 | 0.0 | 0.00 | 0.00 | 0.00 | 86 | 1012.6 |
| 20260505123433 | 11 | 324 | 0.0 | 0.0 | 0.00 | 0.00 | 0.00 | 86 | 1012.5 |
| 20260505122933 | 11 | 324 | 0.0 | 0.0 | 0.00 | 0.00 | 0.00 | 86 | 1012.5 |
| 20260505122432 | 11 | 324 | 0.0 | 0.0 | 0.00 | 0.00 | 0.00 | 85 | 1012.6 |
| 20260505121934 | 11 | 324 | 0.0 | 0.0 | 0.00 | 0.00 | 0.00 | 85 | 1012.7 |
| 20260505121433 | 11 | 324 | 0.0 | 0.0 | 0.00 | 0.00 | 0.00 | 85 | 1012.6 |
| 20260505120933 | 11 | 324 | 0.0 | 1.6 | 0.00 | 0.00 | 0.00 | 85 | 1012.6 |
| 20260505120431 | 11 | 324 | 0.0 | 1.6 | 0.00 | 0.00 | 0.00 | 85 | 1012.7 |
| 20260505115930 | 11 | 324 | 0.0 | 1.6 | 0.00 | 0.00 | 0.00 | 85 | 1012.7 |
| 20260505115430 | 11 | 324 | 0.0 | 1.6 | 0.00 | 0.00 | 0.00 | 85 | 1012.7 |
| 20260505115152 | 11 | 324 | 0.0 | 3.2 | 0.00 | 0.00 | 0.00 | 85 | 1012.8 |
| 20260505114655 | 11 | 324 | 0.0 | 3.2 | 0.00 | 0.00 | 0.00 | 85 | 1012.7 |
| 20260505113926 | 11 | 324 | 0.0 | 4.8 | 0.00 | 0.00 | 0.00 | 85 | 1012.8 |
| 20260505113425 | 11 | 323 | 1.6 | 4.8 | 0.00 | 0.00 | 0.00 | 85 | 1012.7 |
| 20260505112923 | 11 | 324 | 1.6 | 4.8 | 0.00 | 0.00 | 0.00 | 85 | 1012.8 |
| 20260505112421 | 11 | 324 | 3.2 | 6.4 | 0.00 | 0.00 | 0.00 | 85 | 1012.8 |
| 20260505112140 | 11 | 326 | 3.2 | 6.4 | 0.00 | 0.00 | 0.00 | 84 | 1012.8 |
| 20260505111418 | 11 | 324 | 3.2 | 4.8 | 0.00 | 0.00 | 0.00 | 84 | 1012.7 |
| 20260505110916 | 11 | 326 | 0.0 | 6.4 | 0.00 | 0.00 | 0.00 | 84 | 1012.6 |
| 20260505110413 | 11 | 327 | 0.0 | 8.0 | 0.00 | 0.00 | 0.00 | 84 | 1012.7 |
| 20260505101905 | 11 | 313 | 3.2 | 9.7 | 0.00 | 0.00 | 0.00 | 84 | 1012.6 |
| 20260505101404 | 11 | 320 | 3.2 | 9.7 | 0.00 | 0.00 | 0.00 | 84 | 1012.7 |
| 20260505100904 | 11 | 305 | 3.2 | 9.7 | 0.00 | 0.00 | 0.00 | 83 | 1012.7 |
| 20260505100404 | 11 | 299 | 3.2 | 14.5 | 0.00 | 0.00 | 0.00 | 83 | 1012.9 |
| 20260505095904 | 11 | 299 | 6.4 | 14.5 | 0.00 | 0.00 | 0.00 | 83 | 1012.9 |
| 20260505095403 | 11 | 310 | 8.0 | 11.3 | 0.00 | 0.00 | 0.00 | 83 | 1012.8 |
| 20260505095112 | 11 | 299 | 6.4 | 9.7 | 0.00 | 0.00 | 0.00 | 83 | 1012.7 |
| 20260505095057 | 11 | 307 | 4.8 | 9.7 | 0.00 | 0.00 | 0.00 | 83 | 1012.9 |
| 20260505093904 | 11 | 329 | 4.8 | 11.3 | 0.00 | 0.00 | 0.00 | 83 | 1012.8 |
| 20260505093404 | 11 | 300 | 6.4 | 11.3 | 0.00 | 0.00 | 0.00 | 83 | 1012.7 |
| 20260505093346 | 11 | 278 | 3.2 | 8.0 | 0.00 | 0.00 | 0.00 | 83 | 1012.9 |
| 20260505092406 | 11 | 296 | 1.6 | 4.8 | 0.00 | 0.00 | 0.00 | 83 | 1013.0 |
| 20260505091903 | 11 | 296 | 3.2 | 4.8 | 0.00 | 0.00 | 0.00 | 83 | 1013.0 |
| 20260505091404 | 11 | 289 | 0.0 | 3.2 | 0.00 | 0.00 | 0.00 | 83 | 1012.9 |
| 20260505090905 | 11 | 289 | 0.0 | 4.8 | 0.00 | 0.00 | 0.00 | 83 | 1012.9 |
| 20260505090623 | 11 | 289 | 1.6 | 4.8 | 0.00 | 0.00 | 0.00 | 82 | 1012.9 |
| 20260505085900 | 11 | 286 | 1.6 | 6.4 | 0.00 | 0.00 | 0.00 | 82 | 1013.1 |
| 20260505085401 | 11 | 286 | 1.6 | 8.0 | 0.00 | 0.00 | 0.00 | 82 | 1013.1 |
| 20260505084859 | 12 | 288 | 3.2 | 8.0 | 0.00 | 0.00 | 0.00 | 82 | 1013.2 |
| 20260505084401 | 12 | 285 | 4.8 | 8.0 | 0.00 | 0.00 | 0.00 | 82 | 1013.2 |
| 20260505083858 | 12 | 293 | 3.2 | 9.7 | 0.00 | 0.00 | 0.00 | 82 | 1013.2 |
| 20260505083623 | 12 | 299 | 3.2 | 11.3 | 0.00 | 0.00 | 0.00 | 82 | 1013.3 |
| 20260505082854 | 12 | 300 | 4.8 | 14.5 | 0.00 | 0.00 | 0.00 | 81 | 1013.3 |
| 20260505082621 | 12 | 312 | 8.0 | 14.5 | 0.00 | 0.00 | 0.00 | 81 | 1013.5 |
| 20260505081853 | 12 | 299 | 8.0 | 14.5 | 0.00 | 0.00 | 0.00 | 80 | 1013.5 |
| 20260505081351 | 12 | 305 | 8.0 | 11.3 | 0.00 | 0.00 | 0.00 | 80 | 1013.6 |
| 20260505080852 | 12 | 317 | 4.8 | 11.3 | 0.00 | 0.00 | 0.00 | 80 | 1013.5 |
| 20260505080351 | 12 | 307 | 6.4 | 14.5 | 0.00 | 0.00 | 0.00 | 80 | 1013.4 |
| 20260505080113 | 12 | 295 | 9.7 | 14.5 | 0.00 | 0.00 | 0.00 | 80 | 1013.6 |
| 20260505075349 | 12 | 314 | 4.8 | 11.3 | 0.00 | 0.00 | 0.00 | 80 | 1013.5 |
| 20260505074848 | 12 | 309 | 6.4 | 11.3 | 0.00 | 0.00 | 0.00 | 80 | 1013.6 |
| 20260505074557 | 12 | 310 | 6.4 | 9.7 | 0.00 | 0.00 | 0.00 | 80 | 1013.5 |
| 20260505074542 | 12 | 290 | 4.8 | 9.7 | 0.00 | 0.00 | 0.00 | 80 | 1013.6 |
| 20260505073344 | 12 | 319 | 8.0 | 9.7 | 0.00 | 0.00 | 0.00 | 80 | 1013.5 |
| 20260505073110 | 12 | 312 | 4.8 | 14.5 | 0.00 | 0.00 | 0.00 | 80 | 1013.5 |
| 20260505072342 | 12 | 310 | 6.4 | 16.1 | 0.00 | 0.00 | 0.00 | 80 | 1013.5 |
| 20260505071842 | 12 | 310 | 6.4 | 16.1 | 0.00 | 0.00 | 0.00 | 80 | 1013.4 |
| 20260505071341 | 12 | 327 | 6.4 | 14.5 | 0.00 | 0.00 | 0.00 | 80 | 1013.4 |
| 20260505070840 | 12 | 310 | 6.4 | 11.3 | 0.00 | 0.00 | 0.00 | 80 | 1013.3 |
| 20260505070338 | 12 | 314 | 6.4 | 11.3 | 0.00 | 0.00 | 0.00 | 80 | 1013.3 |
| 20260505065839 | 12 | 319 | 6.4 | 9.7 | 0.00 | 0.00 | 0.00 | 80 | 1013.3 |
| 20260505065558 | 12 | 295 | 6.4 | 8.0 | 0.00 | 0.00 | 0.00 | 80 | 1013.2 |
| 20260505065056 | 12 | 303 | 3.2 | 8.0 | 0.00 | 0.00 | 0.00 | 80 | 1013.2 |
| 20260505064335 | 12 | 321 | 3.2 | 8.0 | 0.00 | 0.00 | 0.00 | 80 | 1013.1 |
| 20260505063832 | 12 | 306 | 4.8 | 11.3 | 0.00 | 0.00 | 0.00 | 80 | 1013.3 |
| 20260505063330 | 12 | 330 | 6.4 | 11.3 | 0.00 | 0.00 | 0.00 | 80 | 1013.2 |
| 20260505062833 | 12 | 326 | 4.8 | 8.0 | 0.00 | 0.00 | 0.00 | 80 | 1013.2 |
| 20260505062332 | 12 | 331 | 4.8 | 8.0 | 0.00 | 0.00 | 0.00 | 80 | 1013.2 |
| 20260505061831 | 12 | 344 | 4.8 | 16.1 | 0.00 | 0.00 | 0.00 | 80 | 1013.3 |
| 20260505061555 | 12 | 323 | 4.8 | 16.1 | 0.00 | 0.00 | 0.00 | 80 | 1013.2 |
| 20260505060831 | 12 | 353 | 8.0 | 16.1 | 0.00 | 0.00 | 0.00 | 80 | 1013.1 |
| 20260505060331 | 12 | 321 | 6.4 | 16.1 | 0.00 | 0.00 | 0.00 | 80 | 1013.1 |
| 20260505055833 | 12 | 321 | 4.8 | 9.7 | 0.00 | 0.00 | 0.00 | 80 | 1013.0 |
| 20260505055335 | 12 | 313 | 6.4 | 9.7 | 0.00 | 0.00 | 0.00 | 79 | 1013.1 |
| 20260505054832 | 12 | 313 | 4.8 | 14.5 | 0.00 | 0.00 | 0.00 | 79 | 1013.2 |
| 20260505054333 | 12 | 341 | 6.4 | 14.5 | 0.00 | 0.00 | 0.00 | 79 | 1013.2 |
| 20260505054058 | 12 | 336 | 8.0 | 11.3 | 0.00 | 0.00 | 0.00 | 79 | 1013.2 |
| 20260505053333 | 12 | 341 | 4.8 | 11.3 | 0.00 | 0.00 | 0.00 | 79 | 1013.4 |
| 20260505052833 | 12 | 314 | 6.4 | 16.1 | 0.00 | 0.00 | 0.00 | 79 | 1013.3 |
| 20260505052556 | 12 | 337 | 8.0 | 16.1 | 0.00 | 0.00 | 0.00 | 79 | 1013.5 |
| 20260505051829 | 12 | 329 | 9.7 | 11.3 | 0.00 | 0.00 | 0.00 | 79 | 1013.5 |
| 20260505051329 | 12 | 344 | 6.4 | 14.5 | 0.00 | 0.00 | 0.00 | 80 | 1013.5 |
| 20260505050829 | 12 | 323 | 9.7 | 16.1 | 0.00 | 0.00 | 0.00 | 80 | 1013.6 |
| 20260505050330 | 12 | 326 | 4.8 | 16.1 | 0.00 | 0.00 | 0.00 | 80 | 1013.5 |
| 20260505041327 | 13 | 310 | 9.7 | 17.7 | 0.00 | 0.00 | 0.00 | 78 | 1013.0 |
| 20260505040830 | 13 | 319 | 8.0 | 16.1 | 0.00 | 0.00 | 0.00 | 77 | 1013.0 |
| 20260505040328 | 13 | 327 | 8.0 | 14.5 | 0.00 | 0.00 | 0.00 | 77 | 1013.0 |
| 20260505035829 | 13 | 323 | 6.4 | 19.3 | 0.00 | 0.00 | 0.00 | 77 | 1013.0 |
| 20260505035329 | 13 | 317 | 8.0 | 19.3 | 0.00 | 0.00 | 0.00 | 76 | 1012.9 |
| 20260505034829 | 13 | 321 | 8.0 | 14.5 | 0.00 | 0.00 | 0.00 | 76 | 1012.9 |
| 20260505034554 | 13 | 313 | 9.7 | 16.1 | 0.00 | 0.00 | 0.00 | 75 | 1012.8 |
| 20260505033828 | 13 | 343 | 9.7 | 16.1 | 0.00 | 0.00 | 0.00 | 75 | 1012.8 |
| 20260505033329 | 13 | 314 | 8.0 | 16.1 | 0.00 | 0.00 | 0.00 | 74 | 1012.6 |
| 20260505032830 | 13 | 338 | 9.7 | 16.1 | 0.00 | 0.00 | 0.00 | 73 | 1012.6 |
| 20260505032330 | 13 | 350 | 9.7 | 17.7 | 0.00 | 0.00 | 0.00 | 72 | 1012.5 |
| 20260505031827 | 13 | 350 | 9.7 | 17.7 | 0.00 | 0.00 | 0.00 | 72 | 1012.5 |
| 20260505031548 | 14 | 340 | 6.4 | 16.1 | 0.00 | 0.00 | 0.00 | 71 | 1012.4 |
| 20260505031048 | 14 | 323 | 4.8 | 16.1 | 0.00 | 0.00 | 0.00 | 70 | 1012.4 |
| 20260505030326 | 14 | 329 | 6.4 | 9.7 | 0.00 | 0.00 | 0.00 | 70 | 1012.4 |
| 20260505025828 | 14 | 321 | 4.8 | 8.0 | 0.00 | 0.00 | 0.00 | 69 | 1012.4 |
| 20260505025327 | 14 | 302 | 3.2 | 9.7 | 0.00 | 0.00 | 0.00 | 69 | 1012.5 |
| 20260505024827 | 14 | 313 | 4.8 | 11.3 | 0.00 | 0.00 | 0.00 | 68 | 1012.5 |
| 20260505024326 | 14 | 333 | 6.4 | 14.5 | 0.00 | 0.00 | 0.00 | 68 | 1012.6 |
| 20260505023826 | 14 | 316 | 9.7 | 14.5 | 0.00 | 0.00 | 0.00 | 67 | 1012.5 |
| 20260505023327 | 14 | 337 | 8.0 | 17.7 | 0.00 | 0.00 | 0.00 | 67 | 1012.5 |
| 20260505022827 | 14 | 331 | 8.0 | 20.9 | 0.00 | 0.00 | 0.00 | 66 | 1012.4 |
| 20260505022325 | 14 | 320 | 9.7 | 20.9 | 0.00 | 0.00 | 0.00 | 66 | 1012.5 |
| 20260505022319 | 15 | 330 | 12.9 | 19.3 | 0.00 | 0.00 | 0.00 | 66 | 1012.6 |